Location: Horizons Observatory
(43.6555°N, 72.5295°W)
Time: 12:54:11
(UTC-04:00)

Tianhe-1 - Visible Passes

Search period start: 22 June 2021 00:00
Search period end: 02 July 2021 00:00
Orbit: 374 x 386 km, 41.5° (Epoch: 22 June)

Date Brightness Start Highest point End Pass type
(mag) Time Alt. Az. Time Alt. Az. Time Alt. Az.
22 Jun 3.0 03:01:21 17° SE 03:01:21 17° SE 03:03:02 10° ESE visible
23 Jun 1.7 03:35:05 27° SSW 03:36:12 37° SSE 03:39:09 10° E visible
24 Jun 3.1 02:36:42 19° ESE 02:36:42 19° ESE 02:38:01 10° E visible
24 Jun 1.2 04:08:49 11° WSW 04:11:46 56° S 04:14:52 10° E visible
25 Jun 1.3 03:10:26 44° SSW 03:10:49 47° S 03:13:51 10° E visible
26 Jun 3.5 02:12:06 15° E 02:12:06 15° E 02:12:47 10° E visible
26 Jun 1.1 03:44:13 17° WSW 03:46:24 58° S 03:49:29 10° ESE visible
27 Jun 1.5 02:45:58 46° SE 02:45:58 46° SE 02:48:28 10° E visible
27 Jun 1.4 04:18:57 10° W 04:21:58 44° SSW 04:24:59 10° ESE visible
28 Jun 1.1 03:19:58 35° WSW 03:20:58 53° S 03:24:02 10° ESE visible
29 Jun 3.2 02:22:05 18° ESE 02:22:05 18° ESE 02:23:02 10° E visible
29 Jun 1.7 03:54:14 14° WSW 03:56:27 33° SSW 03:59:20 10° SE visible
30 Jun 2.4 02:56:46 27° SE 02:56:46 27° SE 02:58:28 10° ESE visible
30 Jun 2.8 04:29:45 10° WSW 04:31:46 16° SSW 04:33:48 10° SSE visible
01 Jul 2.8 03:32:07 19° SSE 03:32:07 19° SSE 03:33:28 10° SE visible
